(276719) = 2002 VR124 = 2004 CL15

Discovered at Kitt Peak on 2004-02-11 by Spacewatch.

Orbit

Orbit type: Main Belt

Note: WebGL enabled browser required.

epoch2023-09-13.0
epoch JD2460200.5
perihelion date2018-11-13.86704
perihelion JD2458436.36704
argument of perihelion (°)237.81792
ascending node (°)143.50664
inclination (°)11.08064
eccentricity0.1860530
perihelion distance (AU)2.5159241
Tisserand w.r.t. Jupiter3.2
ΔV w.r.t. Earth (km/sec)10.5
semimajor axis (AU)3.0910171
mean anomaly (°)319.95069
mean daily motion (°/day)0.18136430
aphelion distance (AU)3.666
period (years)5.43
P-vector [x]0.92215177
P-vector [y]0.38670831
P-vector [z]-0.00963335
Q-vector [x]-0.36955559
Q-vector [y]0.88806108
Q-vector [z]0.27345233
absolute magnitude15.53
phase slope0.15
uncertainty0
referenceMPEC 2024-A34
observations used516
oppositions16
arc length (days)7680
first opposition used2002
last opposition used2023
residual rms (arc-secs)0.77
perturbers coarse indicatorM-v
perturbers precise indicator003Ek
first observation date used2002-10-31.0
last observation date used2023-11-10.0
computer nameMPCLINUX
JD of orbit computation2456670.841867
perihelion JD uncertainty (days)1.1118E-04
argument of perihelion uncertainty (°)4.5146E-05
ascending node uncertainty (°)3.9251E-05
inclination uncertainty (°)6.7032E-06
eccentricity uncertainty 5.9692E-08
perihelion distance uncertainty (AU)1.9141E-07
Minimum Orbit Intersection Distances (in AU)
for orbit epoch: 2460200.5, reference: E2024-A34
Mercury2.17441
Venus1.79697
Earth1.5375
Mars1.13259
Jupiter1.87616
Saturn5.88921
Uranus14.8789
Neptune27.0583

Observations

530 total observations over interval: 2002 10 31.33718 – 2023 11 10.115615
These data are available for download (format description).

Date (UT) J2000 RA J2000 Dec Magn Location Ref
2002 10 31.33718 04 25 56.32 +04 30 42.6 19.4   704 – Lincoln Laboratory ETS, New Mexico MPS 112899
2002 10 31.35444 04 25 55.72 +04 30 37.7 20.2   704 – Lincoln Laboratory ETS, New Mexico MPS 112899
2002 10 31.37163 04 25 55.12 +04 30 33.7 19.4   704 – Lincoln Laboratory ETS, New Mexico MPS 112899
2002 10 31.38862 04 25 54.51 +04 30 29.4 19.5   704 – Lincoln Laboratory ETS, New Mexico MPS 112899
2002 10 31.40572 04 25 54.00 +04 30 23.8 19.8   704 – Lincoln Laboratory ETS, New Mexico MPS 112899
2002 11 11.36945 04 18 40.36 +03 46 46.1 18.9 R 699 – Lowell Observatory-LONEOS MPS 66535
2002 11 11.38700 04 18 39.51 +03 46 41.2   699 – Lowell Observatory-LONEOS MPS 66535
2002 11 11.40457 04 18 38.78 +03 46 38.1   699 – Lowell Observatory-LONEOS MPS 66535
2002 11 11.42208 04 18 37.91 +03 46 35.0   699 – Lowell Observatory-LONEOS MPS 66535
2002 11 15.35653 04 15 35.89 +03 34 23.0 19.5   644 – Palomar Mountain/NEAT MPS 66535
2002 11 15.39722 04 15 33.93 +03 34 16.3 19.7   644 – Palomar Mountain/NEAT MPS 66535
2002 11 15.42344 04 15 32.62 +03 34 11.5 18.9   644 – Palomar Mountain/NEAT MPS 66535
2002 11 16.35953 04 14 47.98 +03 31 38.0 18.9   644 – Palomar Mountain/NEAT MPS 112899
2002 11 16.38351 04 14 46.80 +03 31 34.0 18.9   644 – Palomar Mountain/NEAT MPS 112899
2002 11 16.40825 04 14 45.57 +03 31 29.7 18.9   644 – Palomar Mountain/NEAT MPS 112899
2002 12 13.31862 03 53 34.50 +03 21 18.8 19.0   644 – Palomar Mountain/NEAT MPS 112899
2002 12 13.33964 03 53 33.62 +03 21 21.2 19.4   644 – Palomar Mountain/NEAT MPS 112899
2002 12 13.37303 03 53 32.31 +03 21 25.6 19.7   644 – Palomar Mountain/NEAT MPS 112899
2004 02 11.44279 10 00 37.48 +12 47 12.1 20.5 V 291 – LPL/Spacewatch II MPS 98947
2004 02 11.46632 10 00 36.41 +12 47 21.7 20.5 V 291 – LPL/Spacewatch II MPS 98947
2004 02 11.48748 10 00 35.42 +12 47 30.1 20.8 V 291 – LPL/Spacewatch II MPS 98947
2004 02 12.32935 09 59 57.97 +12 53 06.1 20.6 V 691 – Steward Observatory, Kitt Peak-Spacewatch MPS 98947
2004 02 12.36058 09 59 56.53 +12 53 18.2 20.6 V 691 – Steward Observatory, Kitt Peak-Spacewatch MPS 98947
2004 02 12.38818 09 59 55.27 +12 53 29.2 20.6 V 691 – Steward Observatory, Kitt Peak-Spacewatch MPS 98947
2004 02 23.27447 09 51 46.42 +14 04 44.6 20.1   704 – Lincoln Laboratory ETS, New Mexico MPS 100155
2004 02 23.28840 09 51 45.82 +14 04 49.5 20.0   704 – Lincoln Laboratory ETS, New Mexico MPS 100155
2004 02 23.29990 09 51 45.34 +14 04 55.0 20.6   704 – Lincoln Laboratory ETS, New Mexico MPS 100155
2004 02 23.31384 09 51 44.64 +14 04 59.5 20.4   704 – Lincoln Laboratory ETS, New Mexico MPS 100155
2007 08 22.31990 00 29 44.00 -05 23 15.4 19.2   704 – Lincoln Laboratory ETS, New Mexico MPS 214431
2007 08 22.33254 00 29 43.86 -05 23 22.7 19.6   704 – Lincoln Laboratory ETS, New Mexico MPS 214431
2007 08 22.34487 00 29 43.65 -05 23 27.2 19.6   704 – Lincoln Laboratory ETS, New Mexico MPS 214431
2007 08 22.36949 00 29 43.41 -05 23 39.0 19.4   704 – Lincoln Laboratory ETS, New Mexico MPS 214431
2007 09 01.229063 00 26 59.67 -06 44 25.5 19.9 V H55 – Astronomical Research Observatory, Charleston MPS 214431
2007 09 01.232470 00 26 59.61 -06 44 31.4 19.8 V H55 – Astronomical Research Observatory, Charleston MPS 214431
2007 09 01.235884 00 26 59.53 -06 44 34.3 19.8 V H55 – Astronomical Research Observatory, Charleston MPS 214431
2007 09 11.66495 00 22 01.31 -08 18 37.9 19.7 R D29 – Purple Mountain Observatory, XuYi Station MPS 215121
2007 09 11.68472 00 22 00.58 -08 18 48.4 19.6 R D29 – Purple Mountain Observatory, XuYi Station MPS 215121
2007 09 11.69637 00 22 00.17 -08 18 55.1 19.7 R D29 – Purple Mountain Observatory, XuYi Station MPS 215121
2007 09 11.70821 00 21 59.77 -08 19 01.6 19.9 R D29 – Purple Mountain Observatory, XuYi Station MPS 215121
2007 09 12.25865 00 21 41.22 -08 24 04.7 18.9 V 703 – Catalina Sky Survey MPS 215121
2007 09 12.26510 00 21 41.04 -08 24 07.7 19.1 V 703 – Catalina Sky Survey MPS 215121
2007 09 12.27154 00 21 40.78 -08 24 11.3 19.1 V 703 – Catalina Sky Survey MPS 215121
2007 09 12.27799 00 21 40.53 -08 24 14.8 19.0 V 703 – Catalina Sky Survey MPS 215121
2007 09 14.31519 00 20 29.32 -08 42 53.1 19.1 V 703 – Catalina Sky Survey MPS 216197
2007 09 14.32290 00 20 28.93 -08 42 58.3 18.9 V 703 – Catalina Sky Survey MPS 216197
2007 09 14.33064 00 20 28.75 -08 43 01.9 18.8 V 703 – Catalina Sky Survey MPS 216197
2007 09 14.33837 00 20 28.42 -08 43 06.4 19.2 V 703 – Catalina Sky Survey MPS 216197
2007 09 15.02387 00 20 03.71 -08 49 23.3 19.0 V A50 – Andrushivka Astronomical Observatory MPS 216197
2007 09 15.02558 00 20 03.59 -08 49 24.5 18.9 V A50 – Andrushivka Astronomical Observatory MPS 216197
2007 09 15.02729 00 20 03.61 -08 49 25.2 19.1 V A50 – Andrushivka Astronomical Observatory MPS 216197
2007 10 04.25891 00 07 32.48 -11 27 59.7 19.0 V 703 – Catalina Sky Survey MPS 218089
2007 10 04.26543 00 07 32.41 -11 28 01.8 19.0 V 703 – Catalina Sky Survey MPS 218089
2007 10 04.27192 00 07 32.05 -11 28 05.1 19.1 V 703 – Catalina Sky Survey MPS 218089
2007 10 04.27845 00 07 31.83 -11 28 07.5 18.9 V 703 – Catalina Sky Survey MPS 218089
2007 10 11.17906 00 03 19.44 -12 10 47.9 19.0 V 703 – Catalina Sky Survey MPS 220493
2007 10 11.18566 00 03 19.22 -12 10 49.8 19.1 V 703 – Catalina Sky Survey MPS 220493
2007 10 11.19229 00 03 18.97 -12 10 52.1 19.2 V 703 – Catalina Sky Survey MPS 220493
2007 10 11.19891 00 03 18.75 -12 10 54.0 18.9 V 703 – Catalina Sky Survey MPS 220493
2009 01 21.26845 07 30 18.20 +13 51 47.1 19.5   704 – Lincoln Laboratory ETS, New Mexico MPS 272454
2009 01 21.28112 07 30 17.59 +13 51 52.4 20.1   704 – Lincoln Laboratory ETS, New Mexico MPS 272454
2009 01 21.29372 07 30 17.00 +13 51 56.5 20.0   704 – Lincoln Laboratory ETS, New Mexico MPS 272454
2009 01 21.30644 07 30 16.32 +13 51 59.1 19.8   704 – Lincoln Laboratory ETS, New Mexico MPS 272454
2009 01 21.31918 07 30 15.74 +13 52 04.3 20.0   704 – Lincoln Laboratory ETS, New Mexico MPS 272454
2010 02 20.559180 12 24 30.258 +05 43 19.52 20.92 r F51 – Pan-STARRS 1, Haleakala MPS 319293
2010 02 20.569867 12 24 29.966 +05 43 23.74 21.03 r F51 – Pan-STARRS 1, Haleakala MPS 319293
2011 04 22.38833 15 56 42.54 -05 11 18.7 20.8 V 691 – Steward Observatory, Kitt Peak-Spacewatch MPS 380018
2011 04 22.40605 15 56 42.02 -05 11 14.5 20.5 V 691 – Steward Observatory, Kitt Peak-Spacewatch MPS 380018
2011 04 22.42380 15 56 41.36 -05 11 09.9 20.4 V 691 – Steward Observatory, Kitt Peak-Spacewatch MPS 380018
2011 04 26.38417 15 54 25.88 -04 54 34.3 21.1 V 691 – Steward Observatory, Kitt Peak-Spacewatch MPS 380018
2011 04 26.40189 15 54 25.22 -04 54 29.8 20.5 V 691 – Steward Observatory, Kitt Peak-Spacewatch MPS 380018
2011 04 26.41711 15 54 24.67 -04 54 26.5 20.7 V 691 – Steward Observatory, Kitt Peak-Spacewatch MPS 380018
2011 05 06.31834 15 47 54.95 -04 15 52.7 20.3 V 691 – Steward Observatory, Kitt Peak-Spacewatch MPS 381179
2011 05 06.33605 15 47 54.18 -04 15 49.3 20.6 V 691 – Steward Observatory, Kitt Peak-Spacewatch MPS 381179
2011 05 06.35378 15 47 53.40 -04 15 45.7 20.6 V 691 – Steward Observatory, Kitt Peak-Spacewatch MPS 381179
2011 05 21.21962 15 36 53.96 -03 31 20.4 19.9 V G96 – Mt. Lemmon Survey MPS 383950
2011 05 21.22655 15 36 53.67 -03 31 19.7 20.0 V G96 – Mt. Lemmon Survey MPS 383950
2011 05 21.23346 15 36 53.35 -03 31 18.8 20.3 V G96 – Mt. Lemmon Survey MPS 383950
2011 05 21.24037 15 36 53.02 -03 31 18.0 20.2 V G96 – Mt. Lemmon Survey MPS 383950
2012 05 27.43169 20 56 12.62 -10 30 13.2 20.9 V G96 – Mt. Lemmon Survey MPS 426440
2012 05 27.43855 20 56 12.73 -10 30 12.6 20.8 V G96 – Mt. Lemmon Survey MPS 426440
2012 05 27.44546 20 56 12.84 -10 30 12.2 20.8 V G96 – Mt. Lemmon Survey MPS 426440
2012 05 27.45240 20 56 12.98 -10 30 11.8 20.9 V G96 – Mt. Lemmon Survey MPS 426440
2012 06 01.25635 20 57 33.07 -10 26 21.4 19.5 J W91 – VHS-VISTA, Cerro Paranal MPS 678431
2012 06 01.25770 20 57 33.08 -10 26 21.4 19.5 J W91 – VHS-VISTA, Cerro Paranal MPS 678431
2012 06 01.26212 20 57 33.14 -10 26 21.3 19.9 Y W91 – VHS-VISTA, Cerro Paranal MPS 678431
2012 06 01.26434 20 57 33.17 -10 26 21.2 19.7 Y W91 – VHS-VISTA, Cerro Paranal MPS 678431
